TimeCST,TemperatureF,Dew PointF,Humidity,Sea Level PressureIn,VisibilityMPH,Wind Direction,Wind SpeedMPH,Gust SpeedMPH,PrecipitationIn,Events,Conditions,WindDirDegrees,DateUTC
12:53 AM,46.0,44.1,93,30.27,9.0,Calm,Calm,-,N/A,,Clear,0,2012-12-01 06:53:00
1:53 AM,46.4,44.6,93,30.29,9.0,Calm,Calm,-,N/A,,Mostly Cloudy,0,2012-12-01 07:53:00
2:53 AM,48.0,46.0,93,30.28,8.0,Calm,Calm,-,N/A,,Mostly Cloudy,0,2012-12-01 08:53:00
3:53 AM,48.0,46.9,96,30.28,7.0,Calm,Calm,-,N/A,,Mostly Cloudy,0,2012-12-01 09:53:00
4:53 AM,48.9,46.9,93,30.30,8.0,Calm,Calm,-,N/A,,Mostly Cloudy,0,2012-12-01 10:53:00
5:53 AM,48.9,46.9,93,30.31,7.0,Calm,Calm,-,N/A,,Mostly Cloudy,0,2012-12-01 11:53:00
6:53 AM,48.0,46.0,93,30.32,6.0,Calm,Calm,-,N/A,,Scattered Clouds,0,2012-12-01 12:53:00
7:53 AM,53.1,50.0,89,30.34,7.0,Calm,Calm,-,N/A,,Mostly Cloudy,0,2012-12-01 13:53:00
8:53 AM,59.0,50.0,72,30.35,10.0,Calm,Calm,-,N/A,,Mostly Cloudy,0,2012-12-01 14:53:00
9:53 AM,64.0,48.9,58,30.34,10.0,Variable,4.6,-,N/A,,Mostly Cloudy,0,2012-12-01 15:53:00
10:53 AM,66.9,48.0,51,30.32,10.0,SE,9.2,-,N/A,,Clear,130,2012-12-01 16:53:00
11:53 AM,70.0,46.9,44,30.30,10.0,SE,6.9,-,N/A,,Clear,130,2012-12-01 17:53:00
12:53 PM,71.1,46.9,42,30.27,10.0,SSE,9.2,-,N/A,,Scattered Clouds,150,2012-12-01 18:53:00
1:53 PM,70.0,46.9,44,30.26,10.0,SSE,6.9,-,N/A,,Partly Cloudy,150,2012-12-01 19:53:00
2:53 PM,69.1,46.9,45,30.26,10.0,South,6.9,-,N/A,,Partly Cloudy,180,2012-12-01 20:53:00
3:53 PM,68.0,46.0,45,30.25,10.0,South,6.9,-,N/A,,Mostly Cloudy,180,2012-12-01 21:53:00
4:53 PM,64.9,46.9,52,30.25,10.0,SE,3.5,-,N/A,,Clear,140,2012-12-01 22:53:00
5:53 PM,59.0,46.9,64,30.27,10.0,ESE,3.5,-,N/A,,Clear,120,2012-12-01 23:53:00
6:53 PM,55.9,46.9,72,30.27,10.0,SE,4.6,-,N/A,,Clear,140,2012-12-02 00:53:00
7:53 PM,57.0,46.9,69,30.27,10.0,SSE,3.5,-,N/A,,Clear,150,2012-12-02 01:53:00
8:53 PM,55.9,46.9,72,30.27,10.0,SE,3.5,-,N/A,,Clear,140,2012-12-02 02:53:00
9:53 PM,60.1,45.0,57,30.27,10.0,SE,4.6,-,N/A,,Clear,140,2012-12-02 03:53:00
10:53 PM,59.0,45.0,60,30.27,10.0,SE,6.9,-,N/A,,Clear,130,2012-12-02 04:53:00
11:53 PM,59.0,44.1,58,30.28,10.0,SE,5.8,-,N/A,,Scattered Clouds,140,2012-12-02 05:53:00